FW7566 Weather Reports


time (UTC)temp
C
wind
direction
speed
KPH
gust
KPH
rain 1hr
cm
rain 24hr
cm
rain mn
cm
humidity
%
barometer
mb
20260506162512 17 238 0.0 1.6 0.13 0.08 0.08 90 1009.1
20260506162003 17 224 4.8 8.0 0.13 0.08 0.08 90 1009.1
20260506161501 17 178 1.6 1.6 0.18 0.05 0.05 89 1009.3
20260506160958 17 233 3.2 4.8 0.18 0.05 0.05 87 1009.1
20260506160455 17 137 6.4 11.3 0.00 0.03 0.03 86 1009.3
20260506155952 18 150 1.6 1.6 0.00 0.03 0.03 85 1009.1
20260506155450 18 209 3.2 3.2 0.00 0.03 0.03 84 1009.5
20260506153622 19 162 8.0 12.9 0.00 0.00 0.00 81 1009.2
20260506153120 19 216 1.6 1.6 0.00 0.00 0.00 81 1009.0
20260506152617 19 279 3.2 4.8 0.00 0.00 0.00 82 1009.2
20260506152114 18 251 1.6 3.2 0.00 0.00 0.00 82 1009.5
20260506151613 19 207 0.0 0.0 0.00 0.00 0.00 81 1009.4
20260506151109 19 201 4.8 4.8 0.00 0.00 0.00 78 1009.3
20260506150606 20 188 17.7 24.1 0.00 0.00 0.00 75 1009.3
20260506145600 20 257 3.2 4.8 0.00 0.00 0.00 74 1009.7
20260506145057 20 234 1.6 1.6 0.00 0.00 0.00 74 1009.5
20260506144554 20 122 1.6 1.6 0.00 0.00 0.00 74 1009.5
20260506144051 20 295 4.8 4.8 0.00 0.00 0.00 73 1009.3
20260506143549 20 116 11.3 14.5 0.00 0.00 0.00 73 1009.6
20260506143047 20 183 3.2 3.2 0.00 0.00 0.00 72 1009.6
20260506142544 20 169 3.2 4.8 0.00 0.00 0.00 72 1009.4
20260506142042 20 132 9.7 11.3 0.00 0.00 0.00 72 1009.4
20260506141539 20 190 6.4 8.0 0.00 0.00 0.00 72 1009.4
20260506141038 20 153 4.8 4.8 0.00 0.00 0.00 73 1009.3
20260506140535 20 279 3.2 4.8 0.00 0.00 0.00 72 1009.5
20260506140032 20 206 4.8 8.0 0.00 0.00 0.00 73 1009.4
20260506135529 20 160 1.6 3.2 0.00 0.00 0.00 74 1009.4
20260506135025 20 223 4.8 9.7 0.00 0.00 0.00 74 1009.5
20260506134521 20 159 3.2 4.8 0.00 0.00 0.00 73 1009.7
20260506134018 20 202 1.6 3.2 0.00 0.00 0.00 72 1009.5
20260506133515 20 275 3.2 4.8 0.00 0.00 0.00 73 1009.5
20260506133012 20 187 4.8 8.0 0.00 0.00 0.00 74 1009.9
20260506132509 20 270 1.6 1.6 0.00 0.00 0.00 74 1009.8
20260506132006 20 125 0.0 0.0 0.00 0.00 0.00 74 1009.5
20260506131503 19 258 4.8 4.8 0.00 0.00 0.00 75 1009.4
20260506131000 19 179 1.6 1.6 0.00 0.00 0.00 76 1009.6
20260506130456 19 66 1.6 1.6 0.00 0.00 0.00 76 1009.8
20260506125954 19 216 4.8 4.8 0.00 0.00 0.00 76 1009.6
20260506125452 19 122 1.6 1.6 0.00 0.00 0.00 77 1009.6
20260506124950 19 271 3.2 4.8 0.00 0.00 0.00 77 1009.5
20260506124447 18 182 1.6 3.2 0.00 0.00 0.00 77 1009.2
20260506123945 19 177 3.2 4.8 0.00 0.00 0.00 77 1009.3
20260506123443 18 168 1.6 1.6 0.00 0.00 0.00 78 1009.3
20260506122940 18 212 3.2 3.2 0.00 0.00 0.00 78 1009.2
20260506122437 18 202 4.8 4.8 0.00 0.00 0.00 78 1009.2
20260506121935 18 125 3.2 4.8 0.00 0.00 0.00 79 1009.5
20260506121431 18 234 4.8 4.8 0.00 0.00 0.00 79 1009.2
20260506120929 18 287 3.2 3.2 0.00 0.00 0.00 79 1009.8
20260506120426 18 181 6.4 9.7 0.00 0.00 0.00 79 1009.9
20260506115923 18 297 4.8 8.0 0.00 0.00 0.00 79 1009.8
20260506115421 18 284 3.2 4.8 0.00 0.00 0.00 79 1009.7
20260506114919 18 180 8.0 9.7 0.00 0.00 0.00 80 1009.9
20260506114416 18 184 3.2 4.8 0.00 0.00 0.00 79 1009.9
20260506113915 18 144 3.2 3.2 0.00 0.00 0.00 80 1010.0
20260506113412 18 167 1.6 3.2 0.00 0.00 0.00 79 1009.9
20260506112909 18 166 1.6 3.2 0.00 0.00 0.00 80 1009.8
20260506112407 18 173 3.2 4.8 0.00 0.00 0.00 80 1009.8
20260506111904 18 212 4.8 8.0 0.00 0.00 0.00 80 1009.8
20260506111402 18 86 6.4 11.3 0.00 0.00 0.00 80 1009.8
20260506110859 17 207 8.0 11.3 0.00 0.00 0.00 81 1009.7
20260506110356 17 213 1.6 3.2 0.00 0.00 0.00 82 1009.7
20260506105852 17 145 3.2 3.2 0.00 0.00 0.00 82 1009.7
20260506105349 17 328 3.2 4.8 0.00 0.00 0.00 82 1009.3
20260506104847 17 239 12.9 16.1 0.00 0.00 0.00 82 1009.5
20260506104344 17 156 4.8 8.0 0.00 0.00 0.00 82 1009.5
20260506103842 17 217 0.0 1.6 0.00 0.00 0.00 83 1009.6
20260506103339 17 198 3.2 3.2 0.00 0.00 0.00 83 1009.8
20260506102836 17 198 3.2 3.2 0.00 0.00 0.00 83 1009.8
20260506102334 17 346 1.6 3.2 0.00 0.00 0.00 83 1009.7
20260506101831 17 140 1.6 1.6 0.00 0.00 0.00 83 1009.6
20260506101327 17 174 1.6 1.6 0.00 0.00 0.00 83 1009.6
20260506100825 17 217 4.8 8.0 0.00 0.00 0.00 83 1009.5
20260506100323 17 225 1.6 3.2 0.00 0.00 0.00 84 1009.4
20260506095822 17 229 1.6 1.6 0.00 0.00 0.00 84 1009.3
20260506095318 17 179 0.0 0.0 0.00 0.00 0.00 84 1009.3
20260506094815 17 246 3.2 3.2 0.00 0.00 0.00 83 1009.4
20260506094314 17 180 3.2 3.2 0.00 0.00 0.00 83 1009.3
20260506093812 17 189 3.2 3.2 0.00 0.00 0.00 84 1009.2
20260506093308 17 189 1.6 3.2 0.00 0.00 0.00 84 1009.3
20260506092806 17 290 1.6 1.6 0.00 0.00 0.00 84 1009.4
20260506092306 17 213 1.6 3.2 0.00 0.00 0.00 84 1009.5
20260506091801 17 168 0.0 0.0 0.00 0.00 0.00 84 1009.5
20260506091258 17 253 3.2 3.2 0.00 0.00 0.00 84 1009.5
20260506090756 17 155 3.2 3.2 0.00 0.00 0.00 84 1009.5
20260506090252 17 212 0.0 0.0 0.00 0.00 0.00 84 1009.6
20260506085749 17 167 4.8 4.8 0.00 0.00 0.00 84 1009.7
20260506085246 17 159 1.6 1.6 0.00 0.00 0.00 83 1009.5
20260506084742 17 264 1.6 3.2 0.00 0.00 0.00 82 1009.5
20260506084238 17 216 3.2 4.8 0.00 0.00 0.00 82 1009.5
20260506083736 17 174 3.2 3.2 0.00 0.00 0.00 82 1009.5
20260506083233 17 164 6.4 9.7 0.00 0.00 0.00 82 1009.5
20260506082731 17 135 3.2 4.8 0.00 0.00 0.00 81 1009.5
20260506082226 17 190 4.8 8.0 0.00 0.00 0.00 81 1009.4
20260506081724 17 196 1.6 1.6 0.00 0.00 0.00 82 1009.6
20260506081221 17 198 0.0 0.0 0.00 0.00 0.00 81 1009.6
20260506080719 17 235 1.6 4.8 0.00 0.00 0.00 81 1009.5
20260506080215 17 182 1.6 3.2 0.00 0.00 0.00 80 1009.4
20260506073200 18 184 4.8 4.8 0.00 0.00 0.00 78 1009.6
20260506072656 18 204 1.6 3.2 0.00 0.00 0.00 78 1009.4
20260506072154 18 221 3.2 8.0 0.00 0.00 0.00 77 1009.5
20260506071651 18 275 1.6 3.2 0.00 0.00 0.00 77 1009.5
20260506071149 18 161 1.6 1.6 0.00 0.00 0.00 76 1009.7
20260506070645 18 165 3.2 3.2 0.00 0.00 0.00 76 1009.7
20260506070142 18 238 1.6 1.6 0.00 0.00 0.00 76 1009.7
20260506062120 18 197 1.6 1.6 0.00 0.00 0.00 73 1009.9
20260506061616 18 256 0.0 1.6 0.00 0.00 0.00 73 1010.0
20260506061114 18 219 4.8 8.0 0.00 0.00 0.00 73 1010.0
20260506060612 18 261 1.6 8.0 0.00 0.00 0.00 73 1009.9
20260506060108 19 166 1.6 3.2 0.00 0.00 0.00 72 1009.7
20260506051040 19 255 1.6 1.6 0.00 0.00 0.00 70 1010.2
20260506050538 19 180 1.6 3.2 0.00 0.00 0.00 69 1010.3
20260506045029 20 218 1.6 3.2 0.00 0.00 0.00 68 1010.5
20260506044527 20 213 1.6 1.6 0.00 0.00 0.00 67 1010.3
20260506044023 19 128 3.2 4.8 0.00 0.00 0.00 68 1010.6
20260506043520 19 250 4.8 8.0 0.00 0.00 0.00 68 1010.3
20260506043019 20 229 1.6 3.2 0.00 0.00 0.00 67 1010.4
20260506042518 20 233 0.0 1.6 0.00 0.00 0.00 67 1010.7
20260506042015 20 161 3.2 4.8 0.00 0.00 0.00 67 1010.4
20260506041514 20 178 3.2 4.8 0.00 0.00 0.00 67 1010.5
20260506041010 20 217 1.6 1.6 0.00 0.00 0.00 66 1010.4
20260506040508 20 285 3.2 3.2 0.00 0.00 0.00 66 1010.4
20260506040003 20 316 3.2 3.2 0.00 0.00 0.00 67 1010.3
20260506035501 20 235 3.2 4.8 0.00 0.00 0.00 66 1010.1
20260506034957 20 220 4.8 9.7 0.00 0.00 0.00 66 1010.3
20260506034455 20 214 1.6 1.6 0.00 0.00 0.00 66 1010.3
20260506033951 20 229 1.6 3.2 0.00 0.00 0.00 65 1010.4
20260506033449 20 222 3.2 3.2 0.00 0.00 0.00 65 1010.4
20260506032945 20 121 3.2 4.8 0.00 0.00 0.00 66 1010.2
20260506032443 20 199 0.0 0.0 0.00 0.00 0.00 65 1010.4
20260506031939 20 197 4.8 4.8 0.00 0.00 0.00 65 1010.3
20260506031437 20 167 1.6 3.2 0.00 0.00 0.00 64 1010.4
20260506030934 20 220 4.8 8.0 0.00 0.00 0.00 64 1010.4
20260506030432 20 169 1.6 1.6 0.00 0.00 0.00 63 1010.1
20260506025929 21 214 3.2 4.8 0.00 0.00 0.00 62 1010.0
20260506025426 21 204 1.6 1.6 0.00 0.00 0.00 61 1010.2
20260506024922 21 220 1.6 3.2 0.00 0.00 0.00 61 1010.0
20260506024419 21 188 6.4 9.7 0.00 0.00 0.00 61 1009.9
20260506023915 21 201 3.2 4.8 0.00 0.00 0.00 60 1010.2
20260506023412 21 186 4.8 4.8 0.00 0.00 0.00 59 1010.1
20260506022909 21 314 6.4 11.3 0.00 0.00 0.00 59 1010.0
20260506022407 21 230 4.8 4.8 0.00 0.00 0.00 58 1009.8
20260506021904 21 224 4.8 9.7 0.00 0.00 0.00 57 1010.1
20260506021401 22 180 3.2 8.0 0.00 0.00 0.00 57 1010.0
20260506020858 22 184 1.6 3.2 0.00 0.00 0.00 56 1010.1
20260506020356 22 198 8.0 9.7 0.00 0.00 0.00 56 1010.2
20260506015853 22 184 16.1 17.7 0.00 0.00 0.00 55 1010.1
20260506015351 22 184 4.8 8.0 0.00 0.00 0.00 54 1009.9
20260506014847 22 260 4.8 8.0 0.00 0.00 0.00 53 1009.7
20260506014344 22 204 6.4 9.7 0.00 0.00 0.00 52 1009.9
20260506013840 22 228 6.4 8.0 0.00 0.00 0.00 51 1009.8
20260506013338 23 213 4.8 8.0 0.00 0.00 0.00 49 1009.9
20260506012834 23 210 11.3 12.9 0.00 0.00 0.00 49 1009.9
20260506012332 23 204 9.7 16.1 0.00 0.00 0.00 49 1009.7
20260506011829 23 218 4.8 4.8 0.00 0.00 0.00 49 1009.7
20260506011325 23 217 4.8 4.8 0.00 0.00 0.00 48 1009.5
20260506010823 23 176 6.4 8.0 0.00 0.00 0.00 47 1009.6
20260506010321 23 193 12.9 17.7 0.00 0.00 0.00 47 1009.4
20260506005817 23 194 3.2 4.8 0.00 0.00 0.00 47 1009.4
20260506005314 23 214 3.2 3.2 0.00 0.00 0.00 47 1009.4
20260506004810 23 272 4.8 8.0 0.00 0.00 0.00 47 1009.4
20260506004308 23 167 4.8 9.7 0.00 0.00 0.00 46 1009.3
20260506003804 24 250 3.2 3.2 0.00 0.00 0.00 46 1009.0
20260506003300 24 247 8.0 9.7 0.00 0.00 0.00 45 1009.3
20260506002757 24 194 6.4 11.3 0.00 0.00 0.00 45 1009.3
20260506002253 24 230 4.8 4.8 0.00 0.00 0.00 44 1009.1
20260506001749 24 195 4.8 8.0 0.00 0.00 0.00 44 1009.1
20260506001247 24 185 3.2 8.0 0.00 0.00 0.00 43 1009.0
20260506000743 24 159 6.4 11.3 0.00 0.00 0.00 42 1009.1
20260506000241 24 149 1.6 1.6 0.00 0.00 0.00 41 1008.9
20260505235738 25 187 3.2 4.8 0.00 0.00 0.00 41 1008.8
20260505235235 25 204 3.2 3.2 0.00 0.00 0.00 40 1008.9
20260505234732 25 44 3.2 3.2 0.00 0.00 0.00 40 1008.9
20260505234230 25 208 1.6 1.6 0.00 0.00 0.00 40 1008.9
20260505233726 25 194 1.6 3.2 0.00 0.00 0.00 39 1008.7
20260505233224 25 228 4.8 8.0 0.00 0.00 0.00 38 1008.7
20260505232721 25 318 3.2 3.2 0.00 0.00 0.00 38 1008.6
20260505232218 25 259 4.8 9.7 0.00 0.00 0.00 37 1008.6
20260505231715 25 116 1.6 3.2 0.00 0.00 0.00 37 1008.6
20260505231214 25 253 6.4 12.9 0.00 0.00 0.00 37 1008.5
20260505230712 25 142 1.6 1.6 0.00 0.00 0.00 37 1008.4
20260505230208 26 126 3.2 3.2 0.00 0.00 0.00 37 1008.4
20260505225704 26 163 3.2 8.0 0.00 0.00 0.00 37 1008.5
20260505225201 26 133 20.9 25.7 0.00 0.00 0.00 36 1008.4
20260505224657 26 167 3.2 4.8 0.00 0.00 0.00 36 1008.1
20260505224155 26 221 9.7 11.3 0.00 0.00 0.00 36 1008.0
20260505223652 26 312 3.2 4.8 0.00 0.00 0.00 35 1008.2
20260505223148 26 293 6.4 9.7 0.00 0.00 0.00 34 1007.8
20260505222644 26 223 6.4 8.0 0.00 0.00 0.00 34 1008.1
20260505222141 26 196 3.2 4.8 0.00 0.00 0.00 34 1008.0
20260505221638 26 232 11.3 17.7 0.00 0.00 0.00 34 1008.3
20260505221134 27 219 12.9 24.1 0.00 0.00 0.00 32 1008.2
20260505220632 27 351 1.6 3.2 0.00 0.00 0.00 33 1008.3
20260505220129 27 200 3.2 3.2 0.00 0.00 0.00 33 1008.4
20260505215626 27 257 4.8 8.0 0.00 0.00 0.00 33 1008.2
20260505215125 27 81 4.8 9.7 0.00 0.00 0.00 33 1008.0
20260505214622 27 316 8.0 11.3 0.00 0.00 0.00 33 1007.9
20260505214119 26 177 8.0 12.9 0.00 0.00 0.00 34 1007.7
20260505213617 27 217 4.8 4.8 0.00 0.00 0.00 34 1007.9
20260505213113 27 84 9.7 14.5 0.00 0.00 0.00 33 1007.7
20260505212609 28 228 6.4 11.3 0.00 0.00 0.00 34 1007.8
20260505212107 27 236 1.6 3.2 0.00 0.00 0.00 34 1007.6
20260505211603 28 173 12.9 20.9 0.00 0.00 0.00 33 1007.8
20260505211101 28 94 3.2 4.8 0.00 0.00 0.00 35 1007.6
20260505210557 27 180 4.8 4.8 0.00 0.00 0.00 35 1007.3
20260505210055 28 221 6.4 8.0 0.00 0.00 0.00 34 1007.6
20260505205552 28 40 6.4 9.7 0.00 0.00 0.00 34 1007.4
20260505205050 28 316 8.0 14.5 0.00 0.00 0.00 33 1007.7
20260505204547 28 197 6.4 9.7 0.00 0.00 0.00 32 1007.7
20260505204044 28 4 8.0 12.9 0.00 0.00 0.00 33 1007.8
20260505203540 27 184 6.4 17.7 0.00 0.00 0.00 33 1008.0
20260505203038 28 216 11.3 20.9 0.00 0.00 0.00 33 1008.0
20260505202528 28 192 1.6 3.2 0.00 0.00 0.00 34 1008.1
20260505202024 28 218 11.3 14.5 0.00 0.00 0.00 34 1007.9
20260505201522 28 277 3.2 4.8 0.00 0.00 0.00 34 1007.9
20260505201019 27 280 14.5 17.7 0.00 0.00 0.00 34 1008.1
20260505200517 27 219 9.7 12.9 0.00 0.00 0.00 34 1007.9
20260505200014 27 134 8.0 11.3 0.00 0.00 0.00 35 1007.7
20260505195509 28 194 6.4 9.7 0.00 0.00 0.00 35 1008.0
20260505195007 27 345 4.8 9.7 0.00 0.00 0.00 34 1007.9
20260505194504 28 219 11.3 17.7 0.00 0.00 0.00 37 1008.0
20260505194004 28 201 11.3 12.9 0.00 0.00 0.00 37 1008.0
20260505193501 28 240 9.7 16.1 0.00 0.00 0.00 36 1007.8
20260505192953 28 162 4.8 4.8 0.00 0.00 0.00 35 1008.1
20260505192452 28 179 4.8 8.0 0.00 0.00 0.00 34 1008.0
20260505191949 28 179 12.9 20.9 0.00 0.00 0.00 34 1008.1
20260505191447 28 174 14.5 25.7 0.00 0.00 0.00 36 1008.3
20260505190944 28 212 17.7 20.9 0.00 0.00 0.00 38 1008.4
20260505190439 28 203 6.4 8.0 0.00 0.00 0.00 37 1008.5
20260505185935 28 297 8.0 16.1 0.00 0.00 0.00 35 1008.4
20260505185432 27 200 1.6 4.8 0.00 0.00 0.00 37 1008.4
20260505184928 28 231 14.5 35.4 0.00 0.00 0.00 35 1008.6
20260505184425 28 201 8.0 12.9 0.00 0.00 0.00 35 1008.6
20260505183922 28 297 4.8 4.8 0.00 0.00 0.00 37 1008.8
20260505183419 28 214 8.0 14.5 0.00 0.00 0.00 40 1009.0
20260505182916 27 194 8.0 9.7 0.00 0.00 0.00 38 1008.8
20260505182412 27 271 8.0 12.9 0.00 0.00 0.00 39 1008.7
20260505181909 28 121 6.4 14.5 0.00 0.00 0.00 39 1009.3
20260505181406 28 228 17.7 22.5 0.00 0.00 0.00 39 1008.8
20260505180903 28 250 3.2 3.2 0.00 0.00 0.00 42 1008.9
20260505180359 28 210 6.4 8.0 0.00 0.00 0.00 39 1009.0
20260505175856 28 122 4.8 9.7 0.00 0.00 0.00 39 1009.1
20260505175352 28 229 6.4 12.9 0.00 0.00 0.00 39 1009.1
20260505174849 28 141 3.2 3.2 0.00 0.00 0.00 42 1009.2
20260505174347 29 175 8.0 11.3 0.00 0.00 0.00 43 1009.0
20260505173842 28 236 1.6 1.6 0.00 0.00 0.00 41 1009.2
20260505173338 28 181 1.6 3.2 0.00 0.00 0.00 41 1009.1
20260505172830 28 306 6.4 9.7 0.00 0.00 0.00 39 1009.3
20260505172327 28 240 6.4 8.0 0.00 0.00 0.00 41 1009.3
20260505171821 27 157 4.8 8.0 0.00 0.00 0.00 43 1009.5
20260505171319 27 231 8.0 9.7 0.00 0.00 0.00 43 1009.5
20260505170815 28 201 1.6 3.2 0.00 0.00 0.00 44 1009.6
20260505170312 27 151 6.4 9.7 0.00 0.00 0.00 44 1009.6
20260505165807 27 204 6.4 12.9 0.00 0.00 0.00 43 1009.6
20260505165306 27 166 3.2 8.0 0.00 0.00 0.00 44 1009.6
20260505164759 28 224 1.6 3.2 0.00 0.00 0.00 45 1009.7
20260505164256 27 213 0.0 1.6 0.00 0.00 0.00 46 1009.9
20260505163755 27 177 6.4 9.7 0.00 0.00 0.00 45 1009.9
20260505163253 27 92 1.6 1.6 0.00 0.00 0.00 46 1009.9